Breckenridge, TX

2:04 PM CST on January 23, 2017 (GMT -0600)
Stephens County

Weather History for KBKD - December, 2012

Change the Weather History Date:

Saturday, December 15, 2012

  Actual Average (KMWL) Record (KMWL)
Temperature  
Mean Temperature 60 °F -  
Max Temperature 69 °F 56 °F 82 °F (2010)
Min Temperature 50 °F 32 °F 21 °F (2004)
Degree Days  
Heating Degree Days 6    
Growing Degree Days 10 (Base 50)    
Moisture  
Dew Point 32 °F    
Average Humidity 39    
Maximum Humidity 54    
Minimum Humidity 21    
Precipitation  
Precipitation 0.00 in - - ()
Sea Level Pressure  
Sea Level Pressure 29.88 in    
Wind  
Wind Speed 11 mph (WSW)    
Max Wind Speed 18 mph    
Max Gust Speed 30 mph    
Visibility 10 miles    
Events      
Averages and records for this station are not official NWS values.
T = Trace of Precipitation, MM = Missing Value Source: NWS Daily Summary

Daily Weather History Graph

Daily Weather History Graph

Search for Another Location

Airport or City:

Trip Planner

Search our weather history database for the weather conditions in past years. The results will help you decide how hot, cold, wet, or windy it might be!

Date:

Astronomy

Dec. 15, 2012 Rise Set
Actual Time 7:30 AM CST 5:31 PM CST
Civil Twilight 7:03 AM CST 5:58 PM CST
Nautical Twilight 6:32 AM CST 6:29 PM CST
Astronomical Twilight 6:02 AM CST 6:59 PM CST
Moon 9:30 AM CST (12/15) 8:30 PM CST (12/15)
Length of Visible Light 10h 55m
Length of Day
10h 00m
Waxing Crescent, 8% of the Moon is Illuminated
Dec 15
Waxing Crescent
Dec 19
First Quarter
Dec 28
Full
Jan 4
Last Quarter
Jan 11
New

Hourly Weather History & Observations

Time (CST) Temp. Dew Point Humidity Pressure Visibility Wind Dir Wind Speed Gust Speed Precip Events Conditions
12:15 AM 59.0 °F 37.4 °F 45% 29.88 in 10.0 mi WSW 13.8 mph 18.4 mph N/A   Overcast
12:35 AM 59.0 °F 35.6 °F 42% 29.89 in 10.0 mi West 11.5 mph - N/A   Overcast
12:55 AM 59.0 °F 35.6 °F 42% 29.89 in 10.0 mi West 11.5 mph - N/A   Scattered Clouds
1:15 AM 59.0 °F 33.8 °F 39% 29.89 in 10.0 mi West 12.7 mph - N/A   Scattered Clouds
1:35 AM 55.4 °F 33.8 °F 44% 29.88 in 10.0 mi West 11.5 mph - N/A   Mostly Cloudy
1:55 AM 55.4 °F 32.0 °F 41% 29.89 in 10.0 mi WSW 10.4 mph - N/A   Scattered Clouds
2:15 AM 55.4 °F 32.0 °F 41% 29.88 in 10.0 mi WSW 9.2 mph - N/A   Clear
2:35 AM 55.4 °F 33.8 °F 44% 29.88 in 10.0 mi WSW 11.5 mph - N/A   Clear
2:55 AM 55.4 °F 32.0 °F 41% 29.88 in 10.0 mi WSW 10.4 mph - N/A   Clear
3:15 AM 53.6 °F 33.8 °F 47% 29.88 in 10.0 mi WSW 9.2 mph - N/A   Clear
3:35 AM 53.6 °F 33.8 °F 47% 29.88 in 10.0 mi WSW 9.2 mph - N/A   Clear
3:55 AM 53.6 °F 33.8 °F 47% 29.89 in 10.0 mi WSW 12.7 mph - N/A   Clear
4:15 AM 53.6 °F 32.0 °F 44% 29.89 in 10.0 mi WSW 9.2 mph - N/A   Clear
4:35 AM 51.8 °F 33.8 °F 50% 29.89 in 10.0 mi SW 9.2 mph - N/A   Clear
4:55 AM 51.8 °F 33.8 °F 50% 29.88 in 10.0 mi SW 10.4 mph - N/A   Clear
5:15 AM 51.8 °F 33.8 °F 50% 29.88 in 10.0 mi WSW 9.2 mph - N/A   Clear
5:35 AM 50.0 °F 33.8 °F 54% 29.88 in 10.0 mi SW 10.4 mph - N/A   Clear
6:15 AM 50.0 °F 33.8 °F 54% 29.89 in 10.0 mi SW 10.4 mph - N/A   Clear
6:35 AM 50.0 °F 32.0 °F 50% 29.90 in 10.0 mi SW 8.1 mph - N/A   Clear
6:55 AM 50.0 °F 32.0 °F 50% 29.91 in 10.0 mi SW 9.2 mph - N/A   Clear
7:15 AM 50.0 °F 32.0 °F 50% 29.91 in 10.0 mi SW 9.2 mph - N/A   Clear
7:35 AM 50.0 °F 32.0 °F 50% 29.91 in 10.0 mi SW 8.1 mph - N/A   Clear
7:55 AM 50.0 °F 32.0 °F 50% 29.92 in 10.0 mi SW 8.1 mph - N/A   Clear
8:15 AM 50.0 °F 32.0 °F 50% 29.92 in 10.0 mi SW 8.1 mph - N/A   Clear
8:35 AM 50.0 °F 32.0 °F 50% 29.92 in 10.0 mi WSW 6.9 mph - N/A   Clear
8:55 AM 53.6 °F 32.0 °F 44% 29.93 in 10.0 mi North - - N/A   Clear
9:15 AM 55.4 °F 32.0 °F 41% 29.93 in 10.0 mi SW 9.2 mph - N/A   Clear
9:35 AM 57.2 °F 32.0 °F 38% 29.94 in 10.0 mi WSW 13.8 mph - N/A   Clear
9:55 AM 59.0 °F 30.2 °F 34% 29.94 in 10.0 mi WSW 12.7 mph 16.1 mph N/A   Clear
10:15 AM 59.0 °F 30.2 °F 34% 29.94 in 10.0 mi WSW 11.5 mph - N/A   Clear
10:35 AM 60.8 °F 30.2 °F 31% 29.94 in 10.0 mi WSW 13.8 mph - N/A   Clear
10:55 AM 60.8 °F 30.2 °F 31% 29.93 in 10.0 mi WSW 10.4 mph 18.4 mph N/A   Clear
11:15 AM 64.4 °F 30.2 °F 28% 29.93 in 10.0 mi West 13.8 mph 29.9 mph N/A   Clear
11:35 AM 64.4 °F 28.4 °F 26% 29.93 in 10.0 mi West 16.1 mph 21.9 mph N/A   Clear
11:55 AM 66.2 °F 28.4 °F 24% 29.93 in 10.0 mi West 13.8 mph 18.4 mph N/A   Clear
12:15 PM 64.4 °F 28.4 °F 26% 29.91 in 10.0 mi West 11.5 mph 17.3 mph N/A   Clear
12:35 PM 68.0 °F 30.2 °F 24% 29.90 in 10.0 mi West 12.7 mph - N/A   Clear
1:55 PM 69.8 °F 28.4 °F 21% 29.87 in 10.0 mi West 18.4 mph 24.2 mph N/A   Clear
2:15 PM 69.8 °F 30.2 °F 23% 29.85 in 10.0 mi West 16.1 mph - N/A   Clear
2:35 PM 69.8 °F 30.2 °F 23% 29.84 in 10.0 mi West 15.0 mph 23.0 mph N/A   Clear
2:55 PM 69.8 °F 28.4 °F 21% 29.84 in 10.0 mi West 16.1 mph 23.0 mph N/A   Clear
3:15 PM 69.8 °F 30.2 °F 23% 29.84 in 10.0 mi West 10.4 mph 20.7 mph N/A   Clear
3:35 PM 69.8 °F 30.2 °F 23% 29.84 in 10.0 mi West 12.7 mph - N/A   Clear
3:55 PM 68.0 °F 30.2 °F 24% 29.84 in 10.0 mi West 9.2 mph - N/A   Clear
4:15 PM 68.0 °F 32.0 °F 26% 29.84 in 10.0 mi WNW 8.1 mph - N/A   Clear
4:35 PM 66.2 °F 32.0 °F 28% 29.84 in 10.0 mi NW 3.5 mph - N/A   Clear
4:55 PM 64.4 °F 32.0 °F 30% 29.85 in 10.0 mi NNW 4.6 mph - N/A   Clear
5:15 PM 64.4 °F 32.0 °F 30% 29.85 in 10.0 mi Calm Calm - N/A   Clear
5:35 PM 62.6 °F 33.8 °F 34% 29.84 in 10.0 mi Calm Calm - N/A   Clear
5:55 PM 60.8 °F 33.8 °F 36% 29.84 in 10.0 mi SW 4.6 mph - N/A   Clear
6:15 PM 60.8 °F 32.0 °F 34% 29.85 in 10.0 mi SSW 6.9 mph - N/A   Clear
6:35 PM 59.0 °F 32.0 °F 36% 29.85 in 10.0 mi SW 9.2 mph - N/A   Clear
6:55 PM 59.0 °F 33.8 °F 39% 29.86 in 10.0 mi SW 9.2 mph - N/A   Clear
7:15 PM 59.0 °F 33.8 °F 39% 29.86 in 10.0 mi SW 9.2 mph - N/A   Clear
7:35 PM 59.0 °F 33.8 °F 39% 29.87 in 10.0 mi SW 9.2 mph - N/A   Clear
7:55 PM 59.0 °F 33.8 °F 39% 29.86 in 10.0 mi SW 8.1 mph - N/A   Clear
8:15 PM 57.2 °F 33.8 °F 41% 29.86 in 10.0 mi SW 8.1 mph - N/A   Clear
8:35 PM 57.2 °F 33.8 °F 41% 29.86 in 10.0 mi SW 9.2 mph - N/A   Clear
8:55 PM 57.2 °F 33.8 °F 41% 29.86 in 10.0 mi SW 9.2 mph - N/A   Clear
9:15 PM 59.0 °F 33.8 °F 39% 29.86 in 10.0 mi SW 11.5 mph - N/A   Clear
9:35 PM 57.2 °F 33.8 °F 41% 29.86 in 10.0 mi SW 9.2 mph - N/A   Clear
9:55 PM 57.2 °F 33.8 °F 41% 29.86 in 10.0 mi SW 8.1 mph - N/A   Clear
10:15 PM 55.4 °F 33.8 °F 44% 29.85 in 10.0 mi SW 6.9 mph - N/A   Clear
10:35 PM 55.4 °F 33.8 °F 44% 29.85 in 10.0 mi SSW 9.2 mph - N/A   Clear
10:55 PM 55.4 °F 33.8 °F 44% 29.85 in 10.0 mi SW 11.5 mph - N/A   Clear
11:15 PM 55.4 °F 33.8 °F 44% 29.85 in 10.0 mi SSW 11.5 mph - N/A   Clear
11:35 PM 55.4 °F 33.8 °F 44% 29.85 in 10.0 mi SW 8.1 mph - N/A   Clear
11:55 PM 53.6 °F 33.8 °F 47% 29.84 in 10.0 mi SW 8.1 mph - N/A   Clear